When you browse on this site, cookies collect data to enhance your experience and personalize the content and advertising you see.
Visit our Privacy Policy to learn more. By continuing to use the site, you agree to this use of cookies and data.
  • In Latvia
  • List of Countries
  • For 7 days
  • Water Temperature
  • Satellite Maps
  • Weather Map
  • Weather Widgets
  • user-avatar
    Login

    Hourly Weather Solden

    Today, 26 May, Sunday

    Time Temperature Precipitation Wind Pressure Humidity
    00:00 +1°C° 0.7 mm 0 mps 581 mmHg 96%
    01:00 0°C° 0 mm 0 mps 581 mmHg 95%
    02:00 0°C° 0.4 mm 0 mps 581 mmHg 95%
    03:00 +1°C° 0.4 mm 1 mps 581 mmHg 94%
    04:00 +1°C° 0.4 mm 1 mps 581 mmHg 94%
    05:00 +2°C° 0.2 mm 1 mps 581 mmHg 90%
    06:00 +3°C° 0.2 mm 1 mps 582 mmHg 86%
    07:00 +4°C° 0.2 mm 1 mps 583 mmHg 82%
    08:00 +6°C° 0 mm 1 mps 583 mmHg 75%
    09:00 +8°C° 0 mm 1 mps 584 mmHg 68%
    10:00 +10°C° 0 mm 1 mps 585 mmHg 61%
    11:00 +10°C° 0.1 mm 1 mps 585 mmHg 58%
    12:00 +11°C° 0.1 mm 1 mps 585 mmHg 56%
    13:00 +12°C° 0.1 mm 2 mps 586 mmHg 53%
    14:00 +10°C° 0.1 mm 2 mps 585 mmHg 54%
    15:00 +10°C° 0.1 mm 2 mps 585 mmHg 55%
    16:00 +10°C° 0.1 mm 2 mps 585 mmHg 56%
    17:00 +8°C° 0.1 mm 2 mps 584 mmHg 63%
    18:00 +8°C° 0.1 mm 1 mps 583 mmHg 69%
    19:00 +7°C° 0.1 mm 1 mps 583 mmHg 76%
    20:00 +6°C° 0.1 mm 1 mps 582 mmHg 81%
    21:00 +3°C° 0.1 mm 0 mps 582 mmHg 86%
    22:00 +2°C° 0.1 mm 0 mps 581 mmHg 91%
    23:00 +2°C° 0.1 mm 0 mps 581 mmHg 91%

    Tomorrow, 27 May, Monday

    Time Temperature Precipitation Wind Pressure Humidity
    00:00 +3°C° 0.1 mm 1 mps 581 mmHg 91%
    01:00 +3°C° 0.1 mm 1 mps 580 mmHg 91%
    02:00 +2°C° 0 mm 1 mps 580 mmHg 91%
    03:00 +2°C° 0 mm 1 mps 580 mmHg 91%
    04:00 +2°C° 0 mm 1 mps 579 mmHg 91%
    05:00 +4°C° 0 mm 1 mps 580 mmHg 85%
    06:00 +5°C° 0 mm 1 mps 581 mmHg 80%
    07:00 +7°C° 0 mm 1 mps 581 mmHg 75%
    08:00 +8°C° 0.1 mm 1 mps 582 mmHg 71%
    09:00 +9°C° 0.1 mm 1 mps 582 mmHg 67%
    10:00 +10°C° 0.1 mm 1 mps 583 mmHg 63%
    11:00 +10°C° 0.3 mm 1 mps 583 mmHg 62%
    12:00 +9°C° 0.3 mm 2 mps 582 mmHg 62%
    13:00 +9°C° 0.3 mm 2 mps 582 mmHg 62%
    14:00 +9°C° 0.4 mm 2 mps 582 mmHg 63%
    15:00 +10°C° 0.4 mm 1 mps 582 mmHg 65%
    16:00 +10°C° 0.4 mm 1 mps 581 mmHg 66%
    17:00 +9°C° 0.5 mm 1 mps 581 mmHg 73%
    18:00 +8°C° 0.5 mm 1 mps 580 mmHg 79%
    19:00 +7°C° 0.5 mm 1 mps 579 mmHg 86%
    20:00 +6°C° 0.8 mm 1 mps 579 mmHg 89%
    21:00 +5°C° 0.8 mm 1 mps 578 mmHg 92%
    22:00 +5°C° 0.8 mm 1 mps 578 mmHg 94%
    23:00 +4°C° 1.1 mm 1 mps 578 mmHg 95%

    Day after tomorrow, 28 May, Tuesday

    Time Temperature Precipitation Wind Pressure Humidity
    00:00 +4°C° 1.1 mm 1 mps 577 mmHg 95%
    01:00 +4°C° 1.1 mm 1 mps 577 mmHg 96%
    02:00 +4°C° 0.8 mm 1 mps 577 mmHg 96%
    03:00 +4°C° 0.8 mm 1 mps 576 mmHg 95%
    04:00 +4°C° 0.8 mm 1 mps 576 mmHg 95%
    05:00 +4°C° 0.7 mm 1 mps 576 mmHg 94%
    06:00 +4°C° 0.7 mm 1 mps 577 mmHg 93%
    07:00 +5°C° 0.7 mm 1 mps 577 mmHg 92%
    08:00 +5°C° 0.9 mm 1 mps 577 mmHg 88%
    09:00 +6°C° 0.9 mm 1 mps 578 mmHg 84%
    10:00 +6°C° 0.9 mm 2 mps 578 mmHg 80%
    11:00 +6°C° 0.8 mm 2 mps 578 mmHg 79%
    12:00 +7°C° 0.8 mm 1 mps 578 mmHg 78%
    13:00 +7°C° 0.8 mm 1 mps 578 mmHg 77%
    14:00 +5°C° 0.8 mm 2 mps 578 mmHg 78%
    15:00 +5°C° 0.8 mm 2 mps 577 mmHg 79%
    16:00 +5°C° 0.8 mm 2 mps 577 mmHg 79%
    17:00 +4°C° 0.2 mm 2 mps 577 mmHg 80%
    18:00 +4°C° 0.2 mm 2 mps 577 mmHg 81%
    19:00 +3°C° 0.2 mm 2 mps 577 mmHg 82%
    20:00 +2°C° 0.2 mm 2 mps 577 mmHg 83%
    21:00 +1°C° 0.2 mm 2 mps 577 mmHg 85%
    22:00 -1°C° 0.2 mm 2 mps 577 mmHg 86%
    23:00 -1°C° 0.6 mm 2 mps 577 mmHg 87%

    29 May, Wednesday

    Time Temperature Precipitation Wind Pressure Humidity
    00:00 -1°C° 0.6 mm 2 mps 577 mmHg 88%
    01:00 -1°C° 0.6 mm 2 mps 577 mmHg 89%
    02:00 -1°C° 0.7 mm 2 mps 577 mmHg 90%
    03:00 -2°C° 0.7 mm 2 mps 577 mmHg 91%
    04:00 -2°C° 0.7 mm 2 mps 576 mmHg 92%
    05:00 -1°C° 0.3 mm 3 mps 577 mmHg 89%
    06:00 -1°C° 0.3 mm 3 mps 578 mmHg 87%
    07:00 0°C° 0.3 mm 3 mps 578 mmHg 85%
    08:00 0°C° 0.5 mm 3 mps 579 mmHg 81%
    09:00 +1°C° 0.5 mm 3 mps 579 mmHg 77%
    10:00 +1°C° 0.5 mm 3 mps 580 mmHg 74%
    11:00 +2°C° 0.4 mm 3 mps 580 mmHg 71%
    12:00 +2°C° 0.4 mm 3 mps 581 mmHg 68%
    13:00 +3°C° 0.4 mm 3 mps 581 mmHg 65%
    14:00 +3°C° 0.2 mm 3 mps 581 mmHg 65%
    15:00 +3°C° 0.2 mm 3 mps 582 mmHg 64%
    16:00 +4°C° 0.2 mm 3 mps 582 mmHg 63%
    17:00 +3°C° 0.1 mm 3 mps 582 mmHg 66%
    18:00 +3°C° 0.1 mm 2 mps 582 mmHg 70%
    19:00 +2°C° 0.1 mm 2 mps 582 mmHg 73%
    20:00 +1°C° 0.1 mm 2 mps 582 mmHg 76%
    21:00 -1°C° 0.1 mm 2 mps 582 mmHg 79%
    22:00 -2°C° 0.1 mm 2 mps 582 mmHg 82%
    23:00 -3°C° 0.1 mm 2 mps 582 mmHg 83%

    30 May, Thursday

    Time Temperature Precipitation Wind Pressure Humidity
    00:00 -3°C° 0.1 mm 2 mps 582 mmHg 83%
    01:00 -4°C° 0.1 mm 2 mps 582 mmHg 84%
    02:00 -4°C° 0 mm 2 mps 582 mmHg 84%
    03:00 -4°C° 0 mm 2 mps 582 mmHg 84%
    04:00 -4°C° 0 mm 2 mps 582 mmHg 84%
    05:00 -2°C° 0 mm 2 mps 583 mmHg 79%
    06:00 -1°C° 0 mm 2 mps 584 mmHg 74%
    07:00 +2°C° 0 mm 2 mps 585 mmHg 69%
    08:00 +3°C° 0 mm 2 mps 586 mmHg 65%
    09:00 +5°C° 0 mm 2 mps 587 mmHg 60%
    10:00 +6°C° 0 mm 2 mps 588 mmHg 56%
    11:00 +7°C° 0 mm 2 mps 588 mmHg 54%
    12:00 +8°C° 0 mm 2 mps 589 mmHg 51%
    13:00 +9°C° 0 mm 2 mps 589 mmHg 49%
    14:00 +9°C° 0 mm 2 mps 589 mmHg 48%
    15:00 +9°C° 0 mm 2 mps 589 mmHg 47%
    16:00 +9°C° 0 mm 2 mps 589 mmHg 46%
    17:00 +9°C° 0 mm 1 mps 589 mmHg 52%
    18:00 +8°C° 0 mm 1 mps 588 mmHg 59%
    19:00 +6°C° 0 mm 1 mps 588 mmHg 65%
    20:00 +4°C° 0 mm 1 mps 587 mmHg 70%
    21:00 +2°C° 0 mm 2 mps 587 mmHg 74%
    22:00 -1°C° 0 mm 2 mps 587 mmHg 79%
    23:00 -2°C° 0 mm 2 mps 587 mmHg 80%

    31 May, Friday

    Time Temperature Precipitation Wind Pressure Humidity
    00:00 -2°C° 0 mm 2 mps 587 mmHg 81%
    01:00 -2°C° 0 mm 2 mps 587 mmHg 82%
    02:00 -2°C° 0 mm 2 mps 587 mmHg 81%
    03:00 -3°C° 0 mm 2 mps 586 mmHg 81%
    04:00 -3°C° 0 mm 2 mps 586 mmHg 80%
    05:00 -1°C° 0 mm 2 mps 587 mmHg 74%
    06:00 +2°C° 0 mm 2 mps 588 mmHg 68%
    07:00 +5°C° 0 mm 1 mps 590 mmHg 61%
    08:00 +8°C° 0 mm 1 mps 590 mmHg 57%
    09:00 +10°C° 0 mm 1 mps 591 mmHg 52%
    10:00 +12°C° 0 mm 1 mps 592 mmHg 47%
    11:00 +12°C° 0.1 mm 1 mps 593 mmHg 47%
    12:00 +13°C° 0.1 mm 1 mps 593 mmHg 47%
    13:00 +13°C° 0.1 mm 2 mps 593 mmHg 47%
    14:00 +13°C° 0.1 mm 2 mps 593 mmHg 48%
    15:00 +13°C° 0.1 mm 2 mps 592 mmHg 49%
    16:00 +13°C° 0.1 mm 2 mps 592 mmHg 50%
    17:00 +10°C° 0.1 mm 2 mps 592 mmHg 56%
    18:00 +10°C° 0.1 mm 1 mps 591 mmHg 63%
    19:00 +9°C° 0.1 mm 1 mps 591 mmHg 69%
    20:00 +8°C° 0.1 mm 1 mps 590 mmHg 73%
    21:00 +5°C° 0.1 mm 2 mps 590 mmHg 76%
    22:00 +4°C° 0.1 mm 2 mps 590 mmHg 80%
    23:00 +4°C° 0.1 mm 2 mps 590 mmHg 81%
    Show more